Orbital Elements
Epoch 2021 July 5.0 TT = JDT 2459400.5
T 2020 June 4.44236 TT Rudenko
q 4.6752707 (2000.0) P Q
z +0.0016686 Peri. 128.93463 -0.11006782 -0.38415275
+/-0.0000022 Node 68.40837 -0.88516393 -0.38160437
e 0.9921989 Incl. 99.64563 +0.45207289 -0.84071682
From 200 observations 2020 Apr. 30-2021 June 11, mean residual 0".4.
|